Tracking 21611 objects as of 21-Oct-2020
HD Live streaming from Space Station
objects crossing your sky now

JCSAT 10

Track JCSAT 10 now!
JCSAT 10 is classified as:


NORAD ID: 29272
Int'l Code: 2006-033A
Perigee: 35,784.7 km
Apogee: 35,803.1 km
Inclination: 0.0 °
Period: 1,436.1 minutes
Semi major axis: 42164 km
RCS: 25.1189 m2 (large)
Launch date: August 11, 2006
Source: Japan (JPN)
Launch site: FRENCH GUIANA (FRGUI)

JCSat 10 is a Japanese geostationary communications satellite. The 4.4 tonne satellite carries 30 Ku-band and 12 C-band transponders to provide direct-to-home radio and television services to Japan, Asia-Pacific, and Hawaii, after parking over 128° E longitude.
aabbcc
Your satellite tracking list
Your tracking list is empty




NASA's NSSDC Master Catalog

Two Line Element Set (TLE):
1 29272U 06033A   20294.84141595 -.00000357 +00000-0 +00000-0 0  9994
2 29272 000.0317 120.5254 0002183 081.6356 258.5218 01.00271090027030
Source of the keplerian elements: AFSPC